Theta_e
308 308 308 308 308 308 308 307 307 307 307 307 307 307 307 307 307 308 308 308 309 310 310 310 309 308 304 303 303 303 304 304 305 310 313 311 304 307 310 311 313 313 312 312 311 308 308 309 309 310 311 310 311 311 310 311 312 312 314 313 312 315 314 315 317 316 315 314 317 317 317 317 317 318 320 323 324 325 326 327 326 326 327 327 325 326 332 336
308 308 308 308 308 308 308 307 307 307 307 307 307 307 307 307 307 308 308 309 309 310 311 310 309 306 303 302 302 303 304 306 311 315 314 306 306 310 311 312 313 313 313 311 311 308 308 310 308 309 311 311 310 310 310 311 312 313 316 314 313 317 316 314 315 316 315 314 317 317 316 317 317 317 318 323 325 326 327 326 326 326 325 323 322 323 327 331
308 308 308 308 307 307 307 307 307 307 307 307 308 308 308 307 307 308 308 309 310 310 310 309 307 304 302 302 302 303 305 311 320 321 312 305 310 313 314 314 313 313 313 312 311 308 308 309 308 309 310 310 311 310 310 312 313 314 314 314 315 315 315 315 316 316 314 314 317 316 316 317 316 316 317 323 325 326 327 326 326 326 324 323 322 320 322 324
307 307 308 308 307 307 307 307 308 308 308 308 308 308 308 307 308 308 309 309 309 310 309 307 304 302 302 302 303 304 307 317 327 321 312 311 311 314 316 314 312 313 313 312 311 308 307 307 308 310 310 309 311 310 310 312 313 313 313 315 315 313 314 315 315 316 315 315 316 316 317 317 315 315 318 322 325 326 327 326 326 325 323 323 322 320 319 319
307 308 308 308 308 307 307 307 307 308 308 308 308 308 308 308 308 308 309 309 309 309 307 304 302 302 302 303 304 305 309 318 320 314 313 316 313 314 317 314 312 311 311 310 309 308 307 308 310 311 310 309 309 309 311 312 311 313 314 314 314 313 314 314 315 315 315 316 316 316 316 315 316 316 315 320 324 324 324 325 325 324 323 322 321 320 320 321
307 307 308 307 308 307 307 307 307 308 308 308 308 308 308 308 308 308 309 309 309 308 305 302 302 302 302 304 306 308 313 316 313 313 313 316 315 315 315 312 309 307 307 307 307 309 309 310 311 311 310 310 310 310 312 312 310 312 313 313 313 313 313 314 316 317 316 316 316 315 315 315 317 316 314 317 320 319 321 324 324 323 322 321 321 322 324 328
307 307 308 308 308 308 308 307 308 308 308 307 307 308 308 308 308 308 309 309 307 305 302 302 301 302 302 306 312 314 317 318 314 314 312 311 312 311 310 308 306 306 306 307 309 310 311 311 312 311 310 310 311 311 311 311 311 312 311 312 313 313 313 314 316 316 316 315 315 316 316 317 316 314 314 316 318 318 320 323 324 323 321 321 323 325 328 331
308 308 308 308 308 308 308 308 308 308 308 308 307 308 308 308 308 308 308 307 304 302 302 301 301 302 302 308 315 319 322 321 317 315 310 307 308 308 307 307 307 307 308 309 310 311 312 313 313 311 310 311 312 312 311 312 312 311 311 312 312 313 314 314 316 316 316 314 316 319 318 317 315 315 315 315 319 321 322 323 323 322 321 323 326 328 331 332
308 308 308 308 308 308 309 308 308 309 309 309 308 308 308 307 306 306 306 304 302 302 301 301 302 302 304 309 315 322 325 319 316 315 308 306 308 308 308 308 308 307 308 309 309 310 312 314 314 312 311 312 312 312 312 311 314 313 312 312 312 314 315 314 315 316 315 315 317 317 319 319 315 315 314 314 319 322 322 322 322 322 323 324 326 330 332 332
307 308 308 308 308 308 309 309 309 309 309 309 309 308 308 307 306 306 305 303 302 301 301 301 302 302 307 312 318 324 323 313 315 314 307 307 308 308 309 308 309 308 308 309 309 309 311 313 314 312 311 311 311 312 312 311 315 315 312 313 313 315 314 314 316 316 315 315 316 315 317 319 315 315 314 314 320 321 321 322 321 322 323 323 324 329 329 327
307 308 308 308 308 308 309 309 309 309 309 309 309 309 309 308 308 307 304 302 301 301 301 302 302 303 309 316 319 321 317 311 313 310 307 309 308 309 309 309 310 309 309 310 310 310 310 311 312 311 312 312 312 312 311 311 313 314 313 313 314 316 314 314 315 315 315 314 316 316 314 316 315 315 314 314 319 321 321 321 321 321 322 322 322 326 327 324
307 307 307 308 308 308 309 309 309 309 310 310 310 310 309 309 309 307 304 302 302 302 302 302 302 304 311 318 319 318 313 311 311 308 309 310 310 311 311 311 312 312 312 311 311 313 312 312 311 312 313 312 312 312 312 312 311 313 314 313 315 318 315 315 315 315 315 314 316 314 314 319 318 315 315 313 316 320 321 320 320 321 320 321 323 326 328 323
307 307 308 308 308 308 308 309 309 310 310 311 311 311 311 310 309 308 306 303 302 302 302 302 302 306 314 321 319 314 312 313 312 309 310 311 312 313 312 313 313 314 314 313 314 313 312 312 311 312 313 312 313 312 312 312 312 313 313 314 316 317 317 316 315 315 315 314 315 313 314 321 321 316 315 312 313 316 319 320 318 319 321 321 325 328 328 322
306 307 307 308 308 307 308 308 309 310 310 311 312 312 312 312 310 309 307 305 304 303 303 303 303 310 317 320 314 312 314 316 315 311 310 312 312 312 312 313 312 312 313 313 314 312 312 312 311 313 313 312 312 312 313 312 313 314 311 317 317 312 318 319 314 315 314 313 314 313 313 318 320 318 315 312 313 315 316 319 318 319 320 321 326 328 325 321
305 305 306 307 307 307 308 308 309 309 310 311 312 312 312 313 312 309 308 306 304 304 303 303 304 309 316 316 312 313 315 316 316 313 311 312 311 310 312 311 311 312 311 312 312 312 313 312 312 313 313 314 314 312 312 313 316 315 310 321 324 312 314 318 313 316 314 312 313 312 313 315 315 317 316 313 314 314 314 315 317 319 321 322 326 326 323 320
304 304 306 306 306 307 308 307 308 309 310 311 313 314 314 313 312 309 308 305 304 304 303 306 307 309 315 317 313 315 315 314 315 314 312 312 311 311 311 310 311 311 311 312 312 312 313 313 314 313 312 312 314 314 315 318 323 323 314 318 322 313 312 315 313 316 314 312 312 312 317 318 315 317 318 315 313 314 315 314 317 320 321 322 325 325 323 321
303 304 305 306 307 307 307 308 308 308 310 311 312 315 315 313 311 309 307 305 305 304 304 308 310 311 316 316 315 316 316 314 314 314 313 311 311 312 310 310 310 310 312 311 311 314 312 314 313 314 321 320 318 318 318 319 323 327 325 321 320 316 312 313 315 315 313 313 312 311 317 319 317 320 319 314 311 313 315 315 317 319 320 322 324 324 322 322
302 303 304 305 306 307 308 308 308 308 309 309 310 312 316 315 310 309 309 306 307 308 309 311 311 314 317 317 318 318 316 314 314 314 313 312 313 312 310 310 311 311 311 312 314 314 312 317 318 318 330 331 323 319 319 320 319 322 327 325 322 319 315 314 314 313 311 312 314 312 314 317 318 323 321 315 314 315 317 319 319 319 320 321 322 324 322 321
302 303 303 304 306 307 308 308 308 308 308 309 308 309 316 317 313 312 310 309 313 317 320 318 316 318 316 316 319 317 315 314 313 312 312 313 312 311 311 310 311 312 312 315 317 316 313 318 322 318 322 328 325 320 319 321 320 320 324 321 318 317 317 317 314 316 315 311 314 314 312 315 317 320 322 320 320 317 317 323 322 319 319 319 320 323 322 322
301 302 303 304 305 306 307 307 308 308 308 308 307 311 321 321 319 320 317 315 317 319 321 319 317 318 315 315 316 314 314 313 312 312 312 312 311 311 311 310 312 314 316 319 319 321 318 314 318 318 321 329 331 329 326 326 327 325 324 319 315 315 316 316 315 319 321 312 313 318 315 315 317 320 327 326 321 316 316 321 323 320 318 317 319 322 322 322
301 301 303 304 305 306 307 307 307 307 308 307 306 316 327 322 317 320 320 319 316 314 316 316 315 317 316 315 314 313 313 312 312 312 312 312 311 310 311 311 312 315 322 324 320 321 317 313 319 325 327 331 334 337 333 328 329 329 325 318 315 317 315 316 321 323 324 318 316 321 320 320 323 325 329 325 319 319 319 319 322 323 320 316 317 320 322 321
300 301 302 303 304 305 306 306 307 307 307 305 307 317 323 317 314 315 316 320 317 314 315 315 315 316 316 316 317 315 313 313 313 312 312 311 310 310 311 312 311 316 323 319 316 318 316 316 322 327 330 329 330 336 335 328 330 331 326 320 318 319 316 322 334 330 326 324 322 324 322 324 330 328 324 321 320 326 327 321 321 322 320 317 316 319 321 321
300 300 301 303 304 304 305 305 305 305 306 305 307 313 317 314 316 315 314 318 318 317 317 316 316 317 318 318 318 316 314 314 314 314 312 309 311 311 311 311 311 314 317 315 316 318 318 320 322 323 328 330 327 330 338 337 333 329 322 319 320 319 316 321 331 332 329 324 320 321 322 329 336 328 324 322 321 326 328 326 324 322 320 319 317 317 319 321
300 300 301 303 304 305 304 304 305 306 306 306 307 311 314 315 316 315 318 321 320 319 318 317 317 317 319 318 315 315 314 314 315 314 312 310 311 311 310 312 311 311 312 315 320 319 318 320 322 323 328 331 324 325 338 336 328 333 328 319 320 321 319 319 323 333 339 334 328 322 323 340 345 328 324 324 319 320 323 323 323 321 320 319 317 318 319 320
300 300 302 303 305 305 303 305 307 306 307 308 310 312 314 316 315 317 323 327 328 325 318 316 317 316 316 316 313 314 314 314 315 313 311 310 311 311 311 311 311 313 313 313 316 317 317 318 322 325 326 327 322 323 336 333 324 332 336 327 324 324 323 322 323 330 333 331 331 321 320 342 348 328 324 324 319 320 320 319 319 319 320 320 319 320 320 321
299 301 303 304 306 304 304 309 309 306 308 310 312 313 314 314 315 318 327 332 334 329 319 315 315 314 315 314 314 314 314 316 315 312 311 310 311 311 312 312 311 313 315 314 317 318 318 320 323 326 324 324 324 321 327 332 323 322 332 336 330 325 324 324 321 323 324 323 326 322 317 331 336 326 323 322 319 321 319 318 319 317 318 320 320 320 321 321
300 302 304 305 306 304 306 312 309 307 311 312 313 313 312 312 313 319 330 335 334 325 317 315 312 313 314 314 315 315 316 317 313 311 311 311 312 310 312 315 313 311 315 317 318 320 320 321 321 324 324 321 324 322 324 333 326 322 334 335 325 321 320 323 322 321 324 321 324 328 321 320 326 324 322 319 317 321 320 319 320 318 317 318 318 318 320 321
301 303 305 305 305 306 311 312 309 309 312 314 313 311 311 311 314 323 331 332 328 318 315 314 311 312 313 312 313 314 316 315 312 312 312 311 311 310 311 313 311 312 314 312 314 321 323 320 321 325 323 319 324 330 331 329 321 326 339 330 320 320 319 325 324 321 324 318 320 331 323 318 327 329 323 317 315 319 320 319 321 318 316 317 316 316 318 319
302 304 305 304 304 310 314 312 311 311 313 314 312 310 311 313 320 331 332 327 321 315 314 313 311 312 312 311 312 312 313 312 314 314 311 310 310 311 311 312 311 310 310 311 315 320 321 322 326 326 322 323 328 331 331 325 320 329 334 321 319 323 323 326 322 321 329 321 316 326 323 317 323 326 321 316 315 319 322 321 319 317 315 316 315 315 316 316
303 304 304 304 306 309 311 312 314 314 313 314 316 315 315 321 330 334 329 325 320 315 313 312 312 312 311 311 311 312 311 311 314 312 310 311 310 310 311 312 311 313 319 321 318 318 317 319 324 321 320 327 327 323 323 321 320 325 322 316 319 324 326 331 329 328 330 324 315 319 322 317 318 324 323 319 319 319 320 320 319 316 315 315 315 315 315 315
305 304 305 307 308 307 311 316 316 313 313 315 317 320 324 332 336 332 327 324 320 318 314 312 313 313 312 312 312 313 311 311 312 311 311 311 309 309 310 312 312 317 328 327 316 318 318 314 318 319 319 321 317 316 317 315 317 320 319 317 319 323 328 333 334 328 323 322 319 317 320 318 316 321 321 319 320 317 315 318 320 319 316 315 316 315 315 316
307 307 308 310 310 308 312 317 313 311 315 314 318 329 335 334 331 330 331 323 317 319 316 312 312 312 312 312 312 313 312 312 312 311 311 310 311 312 310 315 317 314 320 323 317 319 321 316 315 315 316 315 312 315 314 313 317 317 319 321 319 319 324 328 328 324 319 320 322 318 318 319 316 317 317 316 318 317 316 318 321 322 319 316 317 315 315 315
308 309 311 312 311 309 311 314 312 314 316 314 322 335 337 330 327 331 332 321 314 315 312 309 310 310 311 312 313 312 311 313 312 311 312 310 311 313 310 315 319 314 317 321 318 318 320 323 318 312 315 315 313 315 314 315 316 314 317 322 321 317 317 321 322 320 317 320 329 325 317 321 323 320 321 321 318 319 319 316 317 320 320 318 316 314 314 315
311 312 313 315 314 312 313 314 314 316 316 316 328 338 332 327 329 330 325 316 312 310 308 308 309 310 310 310 311 312 311 314 314 311 313 311 310 314 312 310 312 314 315 316 318 318 317 323 323 316 316 316 312 313 315 319 319 316 316 316 320 323 322 321 319 318 318 322 331 325 318 327 330 326 327 322 316 317 317 316 316 317 319 318 315 313 314 315
313 314 316 320 320 318 316 315 315 316 315 319 333 338 331 328 330 326 318 314 311 309 308 308 309 311 311 311 312 311 311 313 315 314 313 313 315 319 318 312 310 313 313 316 321 318 311 317 322 315 314 313 310 311 312 314 317 317 315 312 315 322 325 321 319 324 324 322 326 323 323 332 328 325 327 318 314 316 315 316 317 316 317 317 315 316 315 315
312 314 317 319 320 319 316 314 317 315 316 327 336 336 334 331 326 320 314 312 310 308 308 310 312 312 313 317 316 310 309 312 314 316 316 316 319 319 317 315 312 311 314 319 323 319 313 318 321 313 311 312 310 312 310 309 317 319 314 313 314 314 317 318 319 325 320 317 323 322 323 331 322 318 323 316 315 318 315 316 316 315 316 316 316 317 316 316
313 316 318 319 318 315 315 316 316 315 324 336 335 332 335 328 317 315 313 312 310 309 309 311 314 312 310 316 317 310 310 314 313 314 317 318 317 315 313 313 314 311 312 315 318 319 321 325 323 314 311 312 310 313 314 311 316 317 314 317 319 317 319 318 317 322 318 317 326 324 322 327 322 318 321 317 316 318 316 315 315 314 315 315 316 316 316 317
315 319 320 319 314 312 314 314 313 319 332 338 333 330 330 321 312 312 312 311 309 310 311 311 314 312 308 312 316 311 308 313 312 310 315 316 315 315 313 311 314 312 313 317 317 317 320 323 324 317 311 312 313 314 317 315 312 311 312 315 318 321 324 319 315 318 317 317 325 326 321 322 322 320 319 315 316 318 317 315 314 314 314 314 315 314 315 316
317 325 328 320 313 313 311 309 317 331 338 335 331 331 326 317 312 310 310 311 310 312 313 310 311 313 311 311 313 311 308 310 310 310 314 314 313 316 314 311 313 312 313 318 318 320 323 321 324 324 314 312 319 318 316 315 313 310 311 312 315 320 320 316 316 320 319 317 322 324 320 322 327 326 318 313 315 317 317 316 315 315 314 314 314 312 313 314
318 329 333 319 310 311 306 309 325 337 336 332 332 329 319 312 311 310 310 310 311 312 313 311 310 312 314 312 311 311 310 309 309 309 313 313 312 315 314 311 313 312 313 317 318 322 323 317 324 331 318 313 320 318 312 313 314 313 314 314 315 317 316 315 316 318 319 322 324 322 320 325 330 325 318 315 315 316 315 315 315 314 312 313 313 312 312 312
319 328 331 317 308 310 311 318 329 333 331 328 324 318 313 311 310 309 310 310 311 312 312 312 310 310 313 312 311 310 309 309 308 308 310 310 310 315 315 313 312 312 318 324 322 322 320 318 327 330 319 317 320 315 310 311 312 312 313 313 313 313 313 313 316 320 322 325 326 322 322 327 326 323 321 316 314 315 314 313 314 314 312 311 311 311 311 310
321 325 324 315 309 310 316 324 326 326 324 317 312 310 311 311 309 307 308 309 310 309 310 311 310 310 312 310 309 308 307 309 309 308 309 308 308 313 315 313 313 313 320 323 318 321 325 325 326 323 318 317 315 312 311 310 311 312 312 313 313 313 313 310 315 323 322 320 322 320 320 325 323 321 322 317 315 314 312 312 314 313 312 312 310 310 309 309
320 319 318 313 308 310 317 323 324 323 318 311 309 310 309 308 307 307 308 308 309 309 310 310 309 309 310 308 308 307 307 310 310 308 310 308 306 311 313 312 313 313 317 319 317 320 325 324 322 321 322 319 315 316 316 313 313 313 313 314 311 311 311 310 314 320 317 317 320 317 318 325 325 320 317 314 314 313 312 313 313 313 314 313 311 311 310 309
316 317 320 313 306 311 315 315 315 317 315 311 309 308 308 308 307 307 308 308 309 311 310 309 308 308 308 307 306 306 306 309 310 309 310 308 307 309 310 311 312 311 314 320 320 316 318 321 320 318 320 320 318 320 321 320 318 312 310 312 308 306 308 312 318 319 318 320 321 319 322 329 325 316 312 310 311 312 311 311 311 313 314 312 311 310 309 308
315 318 324 316 308 313 315 311 310 313 313 311 310 311 309 307 307 308 309 308 308 309 309 309 308 307 307 307 308 308 306 307 310 311 309 308 309 309 309 310 311 313 317 323 324 318 316 322 321 317 317 317 317 320 320 319 316 309 307 308 306 305 307 313 316 315 317 320 317 317 323 323 316 312 311 311 310 309 309 308 309 310 309 309 308 308 308 308
316 317 322 318 313 315 315 312 311 311 311 311 313 313 309 307 308 308 308 309 308 308 309 309 308 308 309 309 310 310 307 306 308 310 309 310 311 310 309 311 313 318 321 320 323 325 319 317 322 322 319 316 316 320 317 312 309 309 308 306 306 308 311 313 312 311 318 320 314 316 318 315 312 311 310 311 311 312 313 310 308 308 307 307 307 307 308 308
316 315 314 312 312 315 314 310 309 309 310 311 312 312 310 310 310 308 308 309 307 307 310 310 308 307 309 310 310 309 309 311 310 310 311 311 311 309 309 311 314 319 322 317 319 323 315 312 318 321 317 313 314 315 312 308 307 307 307 306 307 310 311 310 310 312 316 314 311 316 316 311 310 310 308 310 310 312 312 309 307 307 307 308 308 308 308 307
313 313 310 306 309 313 312 309 310 309 309 311 313 313 311 312 312 312 310 309 308 308 310 311 307 305 306 308 310 309 310 314 314 314 313 311 310 311 311 313 313 314 316 315 315 316 311 311 317 315 313 313 311 309 309 307 306 306 307 308 308 309 309 308 309 313 314 311 311 313 312 310 311 309 308 308 308 308 308 306 306 308 309 309 309 309 309 308
309 312 311 308 309 311 310 310 310 310 311 313 315 315 312 311 313 311 307 308 311 308 307 308 307 304 304 307 310 310 310 313 313 312 311 309 310 311 311 314 314 310 309 311 314 313 311 316 319 312 309 311 308 308 309 307 307 307 307 308 308 309 311 310 311 313 312 311 313 311 310 311 311 307 306 307 307 307 306 307 309 309 310 311 310 310 309 308
306 309 308 308 312 314 313 312 310 310 312 312 312 312 309 308 309 307 305 306 308 307 306 307 306 304 303 306 310 309 307 308 309 308 308 306 308 310 310 312 312 307 306 309 312 312 312 318 320 311 308 312 309 309 309 307 308 308 306 307 307 308 311 310 310 311 309 309 312 309 309 313 311 306 306 306 307 309 309 309 311 310 310 311 310 309 308 308
302 304 304 307 314 316 313 310 309 311 313 310 309 309 308 306 305 305 308 307 304 305 307 306 306 307 306 307 308 306 305 306 305 306 306 305 307 308 308 309 308 306 308 309 310 311 311 316 318 310 310 314 311 307 309 308 308 307 305 306 307 308 310 309 308 308 306 307 308 306 311 317 312 308 309 309 308 310 310 309 310 310 310 309 309 308 308 308
300 303 304 306 312 314 310 309 310 311 310 308 307 307 306 304 303 305 309 309 305 305 306 306 308 309 307 308 307 305 306 306 304 305 306 304 305 305 304 306 305 305 308 309 309 312 312 312 314 311 311 314 310 307 310 310 308 309 312 315 311 309 309 308 308 308 307 307 310 312 316 316 310 309 313 312 309 309 309 309 309 309 308 307 307 307 307 307
Wind_Speed
10 10 10 9 9 9 9 9 9 10 10 10 10 9 9 9 9 9 8 8 8 8 8 9 9 9 9 10 13 14 17 17 16 13 9 12 11 10 7 4 3 6 6 5 5 5 4 4 7 8 5 4 1 2 3 3 2 2 2 2 3 4 5 4 3 4 4 10 8 4 3 10 10 7 6 7 11 10 8 7 7 8 9 12 17 29 35 33
10 10 10 10 10 9 9 9 9 10 9 10 10 9 10 9 9 8 7 7 8 8 9 9 9 8 9 11 12 14 17 17 16 15 15 11 8 11 10 5 4 7 9 8 8 5 2 3 5 4 1 1 2 2 2 2 1 2 2 2 4 5 4 3 4 6 4 9 8 2 1 5 9 6 4 6 8 11 11 7 11 14 11 13 19 27 31 33
11 11 10 10 10 9 9 9 9 9 10 10 10 10 9 9 8 8 8 8 8 8 8 9 8 8 9 11 12 13 15 14 9 10 8 7 13 11 9 6 5 8 10 9 7 6 4 5 6 5 1 2 3 2 2 3 1 2 3 2 5 3 2 3 4 7 5 7 6 2 1 4 5 3 5 8 10 13 12 9 12 15 13 13 14 20 28 29
11 10 10 10 10 9 9 9 9 10 10 10 10 9 9 9 8 8 8 8 8 8 8 8 8 8 10 10 11 13 12 7 3 7 4 5 14 11 9 9 9 9 11 10 8 7 6 6 6 3 1 3 3 1 2 4 2 2 4 4 6 2 4 6 6 7 4 5 6 5 5 4 3 3 8 10 9 7 10 14 17 18 17 16 13 16 21 21
11 11 11 10 10 10 9 10 10 10 10 10 10 9 9 9 8 8 8 7 7 8 8 7 7 8 9 10 11 10 7 3 2 6 6 5 11 11 10 10 12 12 12 10 9 8 7 5 1 0 2 4 2 0 4 5 2 3 4 6 7 5 5 8 7 7 4 5 7 7 6 1 1 5 6 10 9 5 8 13 20 22 20 20 17 15 15 14
11 11 11 10 10 10 10 10 10 10 10 10 9 9 9 8 8 8 8 8 7 7 7 6 7 8 9 10 7 3 2 0 5 7 5 4 8 10 10 11 14 13 12 11 7 4 3 1 1 1 2 2 3 4 6 4 3 3 6 6 7 7 6 5 3 5 1 6 5 5 3 3 4 5 2 6 6 8 9 12 18 21 21 22 18 15 13 12
12 11 11 10 10 10 10 10 10 10 10 9 9 9 9 8 8 7 8 8 7 6 5 6 7 8 10 8 3 1 2 5 9 5 4 5 7 9 10 11 11 10 11 10 7 3 1 1 1 2 1 3 4 6 5 3 4 5 7 9 8 8 8 5 4 4 2 7 2 1 3 5 5 3 1 2 1 6 10 10 12 15 17 18 16 13 12 12
12 12 11 11 10 10 10 10 9 9 9 9 9 9 9 8 7 7 7 6 6 5 4 5 6 8 10 6 2 2 1 7 8 4 7 7 9 10 10 10 10 10 11 10 8 4 2 1 3 2 2 4 4 5 4 1 4 7 9 9 7 7 7 7 6 2 3 4 2 5 6 3 2 3 4 4 0 9 14 12 11 12 13 13 12 11 10 10
13 13 12 11 11 10 10 10 9 9 9 9 9 9 8 8 6 6 5 5 4 4 4 5 7 7 9 4 1 3 3 7 6 5 11 10 10 10 9 8 10 10 9 11 8 4 2 3 4 4 3 5 4 5 3 2 5 7 11 10 6 4 5 6 4 3 2 2 4 6 5 4 3 3 5 4 3 13 16 16 14 13 13 11 11 10 10 11
13 13 12 12 11 11 11 10 10 10 10 10 9 9 8 8 7 6 5 4 3 3 4 5 6 7 6 3 2 1 5 4 1 8 11 10 9 8 10 8 9 11 8 7 6 5 5 5 5 4 4 5 2 4 4 3 4 6 10 9 6 4 5 4 3 3 2 2 5 5 3 6 5 3 4 1 5 13 15 16 14 14 13 12 12 10 10 12
13 13 13 12 12 12 11 11 11 11 11 10 10 10 9 7 6 5 4 3 2 2 4 4 6 6 4 2 2 2 4 2 3 8 9 9 9 9 10 9 10 12 11 5 6 12 13 12 10 4 4 3 2 5 4 3 4 8 7 6 2 1 1 2 5 4 2 2 4 7 1 6 6 3 7 6 8 14 15 14 13 14 13 13 13 9 9 11
14 13 13 12 12 12 12 13 13 12 11 11 10 9 8 7 5 4 3 2 1 1 3 4 5 5 4 2 4 6 3 4 3 7 9 6 7 7 6 9 10 12 12 7 8 16 17 16 11 3 4 2 3 4 4 3 5 7 2 4 3 6 3 2 3 4 4 1 3 7 3 6 5 2 7 6 6 12 16 14 12 12 10 11 10 7 7 9
13 13 12 12 12 13 13 14 14 13 12 11 10 9 8 6 4 3 2 2 1 1 2 3 5 3 2 1 8 7 4 5 5 8 10 5 6 7 8 12 13 15 15 12 13 16 14 12 6 3 4 0 1 3 4 6 5 4 3 2 3 7 4 5 2 2 4 2 5 7 1 6 6 9 5 4 6 9 13 12 11 9 8 8 7 7 7 9
13 12 12 12 13 13 14 14 15 15 13 12 11 9 7 5 3 2 2 1 2 0 2 2 3 1 2 5 10 9 9 9 8 13 13 9 9 10 12 15 16 17 17 17 18 15 12 11 6 2 2 1 2 4 5 6 4 4 4 3 3 3 5 6 2 4 4 1 6 9 2 7 7 10 8 3 8 10 11 11 10 9 8 7 7 8 9 10
12 11 11 12 12 13 13 14 14 14 14 12 11 10 8 4 2 1 1 2 2 2 2 2 3 1 1 7 11 8 6 5 9 18 16 14 13 9 11 14 15 15 13 14 16 14 12 9 5 1 3 2 2 4 6 4 4 3 1 3 3 1 5 7 2 7 7 1 4 8 3 6 6 9 10 2 8 11 10 10 10 10 9 8 7 7 8 8
12 11 10 11 12 12 13 13 13 12 12 12 10 10 9 5 1 1 1 2 2 3 2 1 2 3 0 4 7 6 5 6 10 15 17 18 15 12 12 12 13 15 14 14 14 13 9 5 1 1 2 4 4 3 5 4 5 4 1 3 3 1 4 6 5 7 8 3 2 6 5 3 4 7 9 4 9 12 10 9 10 10 10 9 7 7 8 7
11 10 10 10 11 11 13 14 13 11 11 10 9 8 8 4 2 3 1 2 2 3 3 1 2 1 3 7 6 5 6 10 12 12 15 18 17 16 12 5 9 13 13 13 10 7 4 2 2 2 2 3 3 4 5 4 4 4 3 1 3 2 2 4 7 6 7 8 6 7 6 4 5 6 7 4 9 12 11 10 10 10 8 8 7 7 9 9
11 10 10 10 10 11 12 14 14 13 11 11 10 9 7 2 3 3 3 4 2 1 3 3 2 2 3 5 4 4 6 9 11 12 16 18 16 17 12 3 6 6 4 5 5 3 2 2 1 1 4 4 3 6 3 3 3 2 1 2 3 2 1 3 6 4 8 11 8 7 6 7 7 6 6 3 5 8 7 7 9 10 10 8 8 9 9 10
11 10 10 10 10 11 12 13 15 15 15 14 12 9 6 1 1 2 4 4 2 1 1 3 2 1 2 5 6 5 5 8 8 8 14 16 15 15 11 4 3 2 1 1 4 3 1 2 3 1 3 3 2 4 6 6 6 4 3 3 1 2 2 5 5 4 4 7 6 7 7 7 7 6 6 6 2 5 5 6 7 9 11 10 8 9 10 11
11 10 10 9 10 11 12 13 14 16 17 18 15 9 3 1 2 1 1 2 4 6 4 4 6 3 5 7 5 1 4 7 5 4 9 13 10 7 5 1 3 2 2 3 3 3 3 1 2 4 5 6 6 6 7 5 5 4 2 2 0 1 3 6 4 6 2 4 1 2 3 6 6 6 6 7 4 1 5 7 7 8 9 10 10 11 12 12
11 10 10 10 11 11 11 13 14 16 18 19 16 7 1 1 2 1 3 3 7 11 9 8 9 8 10 10 8 4 3 2 3 3 8 10 7 3 3 1 2 3 3 4 2 2 3 2 6 8 10 9 6 4 6 4 4 4 4 2 3 1 3 6 3 6 3 5 1 3 3 5 6 6 7 5 3 5 7 8 7 8 9 9 11 13 13 11
12 10 10 10 10 11 11 12 13 16 17 17 11 2 3 5 2 2 2 3 7 11 12 12 9 10 15 17 20 18 5 1 4 5 6 6 5 4 3 1 4 3 4 1 1 2 0 4 10 11 7 5 3 2 5 5 5 4 4 3 3 2 2 6 5 7 5 5 2 2 4 5 8 6 6 5 5 6 7 8 8 7 9 9 10 11 12 10
11 10 10 10 10 10 10 11 12 14 15 13 7 4 7 8 6 6 2 1 6 6 8 9 7 7 10 13 18 17 6 2 4 6 6 8 4 4 3 2 4 3 2 1 3 2 2 7 11 9 5 6 4 1 5 5 3 3 3 3 3 3 1 2 5 7 5 2 1 1 3 4 7 6 5 6 6 5 6 7 8 6 8 10 11 10 11 11
10 10 10 11 10 9 9 11 9 9 11 12 11 9 7 6 6 7 2 1 4 5 5 8 7 5 7 9 8 7 3 4 4 4 8 10 4 3 4 4 3 2 3 5 7 6 6 10 6 3 6 8 6 2 5 4 2 2 2 3 3 4 2 4 4 5 6 5 1 5 5 5 4 3 6 5 2 2 5 7 9 7 7 7 7 7 9 11
9 9 9 10 9 8 10 8 4 7 11 9 9 10 7 6 8 5 2 2 3 5 4 5 4 3 6 6 6 5 2 2 4 5 10 12 6 3 2 2 3 3 7 6 5 5 9 10 3 4 7 7 6 4 4 5 0 4 3 6 6 6 5 4 1 3 5 5 4 4 3 5 4 3 7 6 3 4 4 5 11 11 6 5 6 8 9 9
8 7 7 8 8 8 8 3 4 10 8 3 7 12 7 9 11 4 2 4 2 4 2 1 1 3 4 4 4 3 3 3 6 6 10 10 7 4 2 3 1 3 5 3 2 2 5 4 4 6 7 6 5 3 4 5 4 2 4 6 6 4 4 3 2 3 2 3 4 2 3 5 6 4 8 6 4 7 6 5 11 10 6 7 8 10 10 8
7 6 6 6 6 7 5 2 8 10 2 3 12 14 11 12 10 3 3 4 3 3 2 1 0 2 3 4 3 5 2 5 3 2 4 7 5 3 3 4 2 3 2 3 2 2 3 2 3 5 4 5 4 2 4 5 7 3 6 5 4 2 2 3 3 4 3 3 4 4 3 3 5 5 7 5 4 8 8 7 10 9 8 10 10 10 10 9
6 5 5 5 5 6 6 6 9 6 3 10 16 16 14 11 6 2 5 2 2 1 2 3 1 1 2 2 4 4 4 3 3 2 5 6 4 2 2 5 3 4 2 4 1 6 2 2 4 5 5 3 3 5 7 6 5 6 6 4 3 2 3 2 5 3 1 1 5 6 1 0 5 6 5 2 3 8 10 9 10 10 9 11 11 11 10 10
4 4 4 5 6 6 7 8 7 6 10 14 17 17 13 6 3 4 4 1 1 1 1 1 1 1 0 1 2 1 3 1 3 5 3 3 2 3 3 5 5 4 3 5 4 6 3 6 7 6 5 5 6 6 6 7 4 6 5 3 1 3 3 3 5 3 3 4 4 7 1 1 4 7 5 1 2 7 8 8 9 10 10 11 12 11 10 8
4 3 3 4 5 5 8 8 6 9 14 16 17 15 8 3 4 5 2 1 2 2 1 1 2 1 3 2 3 3 3 2 1 1 0 1 1 2 1 1 2 1 3 2 3 6 5 4 4 4 4 6 6 5 5 8 6 2 3 2 4 6 4 3 3 4 5 3 6 5 2 2 3 6 5 3 4 5 6 8 8 7 9 11 12 10 9 8
3 4 3 3 4 4 5 5 6 10 12 16 19 11 2 3 4 5 0 3 2 2 1 0 2 0 4 3 3 3 3 3 1 2 2 1 1 2 2 2 3 3 4 5 3 5 6 2 2 3 5 5 4 4 2 3 3 4 3 2 3 4 5 5 4 4 3 4 6 2 4 5 1 6 6 5 6 7 6 9 9 7 10 11 9 8 8 9
3 4 4 4 5 6 6 5 7 9 11 17 17 6 4 4 3 2 3 3 1 3 2 2 2 2 3 5 4 4 4 3 3 6 5 3 3 2 1 3 2 3 3 4 3 5 5 3 4 3 3 4 5 2 4 4 4 6 4 5 4 2 4 4 4 2 1 6 6 2 4 3 4 8 8 8 10 9 7 8 8 8 11 11 9 9 10 9
4 4 5 6 7 8 7 6 7 8 12 16 10 4 6 4 0 3 3 2 1 3 3 3 4 4 1 2 2 4 4 4 6 7 5 4 4 4 3 4 6 4 2 4 2 2 4 6 4 2 3 1 6 4 3 3 2 4 4 4 4 2 2 1 4 2 2 6 6 3 3 2 4 6 7 8 10 9 8 8 8 7 8 10 10 8 8 7
5 5 6 7 9 9 6 4 7 9 13 12 5 5 6 3 3 3 2 2 2 3 3 3 5 6 4 1 3 3 3 5 5 7 5 3 3 3 4 4 5 5 2 1 2 2 1 5 3 2 3 3 4 5 6 5 2 4 5 5 4 4 4 3 3 3 3 4 5 3 1 3 2 4 6 7 6 5 6 8 2 1 4 4 2 3 5 7
6 7 9 9 9 8 5 3 6 8 9 6 6 5 3 1 4 2 1 3 2 3 4 4 4 6 5 3 4 5 4 4 2 3 5 3 3 4 4 5 6 5 4 1 3 3 3 5 6 4 3 2 2 3 4 6 1 3 2 5 2 4 5 3 3 5 4 1 3 3 2 4 4 5 7 6 7 5 5 10 9 6 8 8 7 5 2 2
7 9 9 9 8 4 2 1 3 5 5 5 6 3 2 4 3 1 1 2 2 3 5 6 5 4 4 4 4 8 7 4 4 3 1 2 3 4 4 4 6 7 6 4 3 2 4 5 6 3 2 6 4 4 1 3 2 2 1 3 3 3 7 2 3 1 3 1 4 2 2 5 3 5 7 8 10 9 8 9 9 7 11 12 9 8 7 6
8 8 7 7 6 1 2 1 2 5 4 6 4 1 4 3 1 1 1 1 1 2 4 3 3 2 3 4 3 6 8 5 5 5 4 2 3 3 2 3 2 3 6 5 3 2 5 3 6 2 3 1 1 2 4 1 3 3 1 5 3 2 4 1 2 3 2 1 5 2 3 4 2 3 6 9 10 9 8 8 9 10 12 11 8 9 9 8
8 6 6 5 2 1 2 2 2 2 4 5 1 3 3 1 1 1 0 1 1 3 4 1 2 1 1 2 3 3 5 4 5 5 4 3 3 3 3 4 4 5 3 4 3 1 4 1 7 3 0 3 3 5 4 5 4 5 1 3 1 1 1 1 1 1 1 2 4 4 3 3 2 4 2 7 7 7 8 9 12 13 12 10 9 9 9 10
5 5 3 2 2 4 6 3 1 4 5 3 1 3 2 2 1 1 1 2 1 3 3 2 2 2 2 2 3 3 2 1 3 4 2 2 4 3 5 3 3 8 8 4 4 0 3 3 4 5 1 1 5 5 1 5 4 3 1 3 1 2 4 3 2 2 3 3 3 3 4 2 4 5 3 2 3 7 8 8 9 9 9 9 8 9 9 9
4 3 2 3 2 6 5 1 3 5 3 1 3 3 2 2 2 2 1 2 2 1 0 3 2 1 3 2 2 3 1 0 1 2 2 2 4 4 5 3 3 6 8 8 5 1 3 3 3 6 4 1 2 0 4 2 1 3 4 5 4 2 0 1 1 2 4 3 3 2 3 4 5 4 6 5 2 7 8 7 7 6 6 6 7 8 8 8
3 2 3 3 3 5 3 3 3 3 3 1 1 1 4 4 4 5 5 5 2 1 2 2 1 1 3 1 2 3 2 2 1 0 2 2 3 3 4 3 3 4 5 7 5 2 2 2 3 2 3 1 4 4 3 5 5 3 1 2 3 3 1 1 3 3 1 3 4 4 4 6 6 4 5 6 4 5 6 7 6 5 6 5 5 6 6 7
2 1 4 5 5 5 3 4 2 0 3 1 2 1 3 5 4 5 7 7 4 1 1 1 2 1 2 1 1 2 3 2 3 1 1 2 0 2 4 5 5 3 3 3 2 2 3 3 3 1 3 4 7 7 2 2 3 5 3 1 0 1 2 1 3 4 2 1 1 3 3 6 6 4 5 6 5 4 4 6 6 5 5 5 5 6 6 7
2 3 5 7 9 5 4 4 5 3 2 3 3 2 2 3 3 4 5 6 4 2 2 1 1 2 2 1 1 3 4 1 3 2 2 2 2 2 4 8 8 4 3 2 3 2 2 4 3 1 3 4 7 6 5 6 5 3 2 1 4 3 3 3 4 3 2 3 1 2 3 6 5 3 3 6 5 4 4 4 5 5 6 6 7 7 7 8
1 4 4 8 12 6 5 2 3 3 3 4 3 4 3 2 3 4 4 5 4 0 1 1 1 1 2 1 1 2 2 0 3 4 2 2 3 2 6 10 9 5 1 3 2 1 2 1 2 2 4 5 7 6 6 6 4 2 2 1 2 3 2 1 1 1 0 3 4 4 4 6 4 4 3 5 4 5 2 1 3 5 6 6 7 8 7 8
3 2 4 7 12 9 5 2 2 1 4 5 4 5 5 3 3 4 4 4 3 0 1 1 0 1 0 2 2 1 1 2 2 4 3 3 4 2 7 10 7 4 4 4 4 3 1 1 3 2 2 3 2 2 3 3 3 2 3 2 1 3 2 2 2 3 0 3 1 3 4 7 7 7 7 8 6 4 1 0 2 5 5 6 7 7 8 8
2 2 3 6 8 7 2 1 4 3 3 4 4 5 4 3 4 3 3 2 3 4 1 3 0 2 2 4 3 2 2 2 2 3 3 4 4 4 7 9 5 4 5 5 4 4 3 1 2 6 6 6 6 6 5 2 2 4 6 8 4 4 5 4 3 2 4 2 3 4 6 7 11 9 6 8 9 8 7 5 5 5 5 6 5 6 6 7
2 1 2 3 4 4 3 3 5 4 3 1 1 3 3 4 4 3 2 1 3 6 2 2 5 5 4 3 2 2 4 5 5 4 3 3 3 5 8 7 4 7 8 6 5 4 4 1 2 5 6 7 8 7 5 3 5 6 8 12 8 3 5 1 3 5 4 2 4 7 6 4 10 9 6 7 7 7 7 8 7 5 5 5 5 6 7 7
2 0 1 1 1 2 2 4 4 5 6 3 1 2 3 4 4 3 3 2 3 5 2 3 8 8 5 2 2 1 4 4 4 4 3 4 5 6 7 6 5 10 9 5 4 4 4 3 4 5 6 6 8 8 7 6 6 7 8 10 8 2 3 6 7 6 6 5 7 8 5 6 8 7 6 6 6 4 5 5 4 5 6 6 7 8 8 8
2 1 3 3 1 2 3 4 4 5 6 5 2 2 3 4 4 3 3 3 3 5 5 3 6 8 7 4 3 3 2 2 2 4 3 4 5 4 5 5 4 8 9 6 5 2 2 3 4 4 4 4 6 7 8 7 6 8 9 7 4 5 7 6 6 6 7 7 9 8 5 7 6 5 5 4 3 3 3 4 5 7 7 7 8 8 7 8
2 1 4 4 3 3 3 3 4 4 5 5 3 3 3 4 4 3 2 2 1 3 4 4 3 5 5 5 5 3 1 3 3 3 1 3 5 2 1 3 4 6 7 5 4 4 3 3 3 1 2 4 4 6 7 8 7 9 8 2 2 4 6 5 6 5 4 5 6 3 4 6 5 4 3 1 3 5 6 6 7 6 6 6 7 6 6 7
6 3 3 2 2 4 2 3 4 3 3 4 4 4 5 6 6 5 3 1 4 3 2 3 2 2 4 5 5 3 4 5 5 6 5 2 2 3 3 2 3 6 6 2 2 3 3 3 3 3 2 4 4 6 7 4 5 9 6 1 2 8 6 4 5 3 2 4 2 1 4 5 4 5 3 1 4 6 6 6 5 5 5 5 5 5 5 6
12 5 4 3 1 3 3 3 4 3 2 3 4 4 4 5 8 6 3 3 3 5 4 4 4 3 3 3 1 5 7 6 6 6 5 5 5 4 5 5 5 5 4 2 2 1 1 1 2 1 3 5 4 5 3 3 4 9 7 5 6 7 4 2 2 1 2 3 3 3 5 5 3 3 4 4 6 6 4 4 4 5 4 4 4 4 5 5
Wind_Direction
329 328 323 320 319 318 318 316 314 312 315 316 315 318 315 313 311 315 317 314 319 318 320 319 315 319 328 342 341 337 331 323 321 311 271 258 245 212 213 232 232 235 221 216 251 278 298 275 272 269 281 311 260 251 264 205 182 105 128 195 222 240 232 209 236 278 307 301 300 338 41 112 108 103 107 68 68 91 91 75 85 70 91 115 122 133 139 144
329 329 325 324 320 318 318 311 309 311 313 313 315 317 315 316 311 314 318 317 321 320 324 320 318 330 343 348 342 340 331 325 321 297 268 255 224 204 207 213 243 225 200 207 234 235 247 271 298 313 280 295 277 258 279 266 159 144 162 186 223 226 226 195 241 282 290 280 280 319 325 118 126 142 118 100 101 95 87 83 97 92 89 99 117 129 136 142
333 332 328 326 320 317 316 311 312 312 312 313 313 314 315 316 313 312 312 314 318 318 319 319 328 343 351 347 342 341 332 332 322 280 273 225 200 201 198 212 249 215 200 211 232 236 232 259 309 335 212 248 274 250 283 286 288 206 174 211 243 234 281 258 263 283 272 282 304 339 12 122 159 156 101 123 123 113 118 124 114 116 122 122 131 135 138 142
335 331 328 325 320 317 315 313 313 311 310 310 309 312 313 314 314 312 311 312 314 317 316 325 344 350 351 344 339 339 333 344 297 258 303 219 205 208 206 222 235 213 210 220 236 246 258 280 301 317 216 257 276 230 241 244 258 239 172 205 234 227 290 267 265 276 284 350 356 351 30 100 183 105 119 130 117 123 148 149 140 139 141 142 150 146 143 139
336 332 330 326 323 320 315 312 309 309 309 309 311 311 312 315 312 310 313 314 316 319 322 337 352 351 348 339 336 334 342 31 277 285 313 232 207 212 211 217 221 219 219 223 239 243 255 274 299 327 217 243 261 94 248 229 200 269 242 227 228 218 256 259 254 261 272 33 19 5 20 9 347 73 129 136 131 176 175 159 149 146 151 152 155 151 143 135
338 334 332 328 324 320 315 312 310 311 310 310 312 309 310 310 308 313 314 314 315 316 329 349 353 351 345 338 335 337 47 338 279 308 310 210 198 211 210 212 212 218 217 213 226 225 239 241 129 213 212 233 213 201 247 239 170 235 270 256 241 226 236 270 266 258 244 76 33 353 357 326 25 64 135 135 158 195 175 164 154 150 154 151 150 150 145 141
341 336 333 329 325 321 317 314 311 310 308 308 308 307 307 306 309 312 310 312 312 319 338 350 353 350 346 349 353 68 107 258 274 284 259 198 183 194 189 197 197 198 198 196 207 194 93 46 192 210 219 265 225 218 244 248 190 206 254 258 248 231 227 254 251 260 49 92 102 336 39 12 29 79 60 40 220 179 150 149 145 143 142 140 146 150 144 144
341 338 335 331 327 323 319 315 313 311 309 308 306 305 304 303 302 300 305 309 308 329 344 347 356 354 352 4 29 355 217 262 285 227 208 186 168 176 177 185 187 188 193 201 201 157 89 282 246 221 252 253 221 226 228 235 242 218 235 247 247 234 215 217 213 217 59 97 99 42 34 351 353 87 69 355 30 124 122 125 125 126 127 137 151 147 134 139
341 339 337 333 329 325 321 317 315 310 307 305 302 302 301 300 295 294 299 302 313 339 342 349 355 356 354 352 21 355 266 280 307 198 193 184 171 179 188 193 195 196 203 217 207 155 148 215 223 197 220 255 241 252 245 244 254 223 228 237 243 232 197 200 184 144 141 127 74 48 356 313 330 58 60 333 149 122 122 129 130 133 138 149 158 149 138 143
341 339 336 333 331 328 324 321 316 312 309 304 302 301 300 300 295 293 289 299 332 339 342 356 353 356 359 347 63 357 281 298 261 187 185 180 180 194 206 205 204 204 210 224 209 196 211 219 231 216 239 262 251 269 270 229 241 247 234 223 228 220 198 191 153 157 164 104 93 94 305 305 326 50 87 266 158 125 124 133 140 146 154 164 167 159 148 151
340 337 335 334 334 333 331 329 324 319 313 307 305 301 301 303 300 299 289 301 334 333 345 353 351 355 359 35 108 242 266 253 179 178 173 180 196 212 214 212 211 209 211 220 225 223 227 241 254 265 256 261 338 300 274 222 274 285 233 186 244 334 146 148 138 160 125 80 117 113 300 312 347 74 146 188 164 135 135 145 157 160 164 172 171 160 152 157
339 336 335 335 335 337 339 338 335 331 325 320 315 308 305 304 298 296 289 296 302 309 338 345 351 347 353 28 212 233 207 188 198 167 164 182 213 232 234 226 225 221 215 210 243 244 241 246 250 248 242 250 5 314 291 297 304 297 206 158 318 16 25 250 177 170 131 152 162 109 17 327 334 238 179 182 177 149 146 158 170 169 169 171 167 148 149 157
339 337 336 336 337 341 344 346 348 345 343 340 334 328 319 310 299 287 276 267 246 304 323 333 340 332 7 308 239 256 249 232 249 193 182 192 231 253 261 251 247 246 239 227 245 263 268 266 260 247 244 118 316 268 312 321 313 312 11 89 337 14 338 259 253 190 141 144 150 121 335 289 273 260 231 161 180 157 149 169 173 168 172 168 159 142 152 159
339 337 335 337 339 342 346 353 357 356 356 355 355 355 348 339 326 289 257 226 194 251 307 307 332 38 105 260 270 299 302 286 260 215 200 201 225 252 263 261 257 256 252 240 249 274 296 306 326 310 269 108 249 284 331 333 339 339 355 20 20 5 286 269 246 175 169 202 134 121 195 251 261 277 279 175 168 164 163 181 173 166 176 165 163 158 162 168
337 336 335 337 338 339 345 354 1 3 2 0 4 7 5 4 355 291 230 197 179 195 253 273 259 219 22 278 285 308 297 276 236 217 206 202 213 238 252 255 258 258 254 249 262 279 294 315 350 9 291 334 20 351 340 333 348 7 13 325 337 209 268 298 287 182 182 260 133 130 183 259 267 269 278 239 167 171 171 186 178 170 175 168 171 168 162 166
336 333 333 333 334 336 338 345 358 4 2 1 3 8 9 9 66 103 206 174 168 205 221 304 235 197 140 288 297 308 262 227 224 218 209 206 211 232 247 256 261 258 255 258 271 280 294 328 340 192 296 337 44 47 4 5 347 357 89 264 281 259 296 319 308 224 187 141 175 175 173 263 265 247 275 270 184 182 169 179 184 173 174 174 170 165 161 160
338 333 330 329 329 330 330 334 343 354 359 356 350 352 359 6 113 129 158 170 187 229 228 273 21 125 247 282 302 300 247 225 227 219 209 213 222 238 250 271 262 252 255 264 275 286 315 360 264 278 358 358 59 78 31 360 315 323 8 332 262 236 287 301 302 271 176 152 192 199 181 212 240 252 281 253 182 182 173 168 177 175 175 177 168 166 168 166
337 331 326 323 322 322 321 324 330 339 345 347 344 333 334 7 113 130 147 158 166 303 291 272 348 28 275 276 276 270 246 222 224 219 214 222 231 237 240 253 256 250 275 286 293 305 300 337 9 7 356 357 41 82 88 251 221 253 320 21 309 281 194 258 280 265 173 168 182 186 203 233 258 293 300 260 141 146 174 167 166 176 177 178 175 175 176 174
333 326 322 316 313 311 311 317 323 328 333 341 345 330 310 293 119 141 150 143 130 72 282 216 173 79 315 271 259 272 252 205 198 208 212 220 228 231 232 249 260 214 94 316 305 308 216 340 25 71 297 301 273 152 170 206 186 193 209 152 244 312 284 260 271 284 182 163 166 175 203 228 250 286 290 286 18 109 188 189 168 179 183 182 180 182 180 179
328 322 317 309 305 302 304 312 315 321 330 337 341 340 335 23 27 336 205 179 208 216 222 200 191 236 294 295 287 208 176 190 190 193 203 208 210 216 225 260 23 45 121 175 263 296 129 169 262 215 225 227 234 210 177 181 169 160 111 110 236 24 308 284 299 327 360 116 100 169 210 247 249 266 271 281 306 246 230 215 186 183 188 186 183 186 185 187
326 320 311 305 301 298 302 306 309 317 325 329 337 352 104 3 32 302 273 249 236 228 239 238 211 231 260 275 286 264 162 174 255 234 209 202 174 162 244 228 62 348 264 178 211 311 100 178 242 226 219 208 214 200 154 130 111 110 90 45 329 31 306 295 306 323 7 102 335 34 42 297 278 275 278 289 276 237 230 224 215 192 190 195 190 189 189 190
326 317 308 302 297 299 301 303 307 313 316 322 334 355 256 301 318 297 290 297 269 230 235 251 233 242 255 258 266 264 257 92 287 277 215 189 149 163 250 201 161 240 278 112 84 333 27 237 244 234 214 173 176 165 121 107 95 90 90 65 324 300 307 310 315 327 14 85 283 4 46 292 277 266 256 251 236 243 228 216 226 199 186 196 194 194 191 184
324 315 310 300 298 304 301 305 309 310 318 321 309 269 299 316 324 329 337 289 292 243 220 242 236 244 258 264 261 251 242 184 254 278 199 168 151 173 176 161 191 244 330 124 172 182 220 244 244 231 174 141 167 143 79 70 69 87 95 79 294 274 42 317 305 327 357 37 221 53 27 291 287 293 266 230 206 249 267 242 243 217 193 202 197 194 189 177
320 314 311 302 304 310 309 316 313 315 328 317 299 307 323 329 328 333 357 181 291 279 230 222 216 223 245 260 246 209 210 205 211 253 190 164 149 169 175 178 177 247 263 210 187 187 232 249 241 163 166 173 181 159 88 80 351 310 161 158 239 262 208 195 264 327 351 336 17 67 17 317 298 302 286 276 187 247 270 258 261 244 213 217 203 193 193 178
321 315 311 307 308 314 321 327 330 334 326 300 311 347 10 6 347 343 39 45 299 291 268 230 216 215 225 229 204 171 150 235 222 213 181 167 152 142 210 212 163 233 253 227 188 200 245 251 204 144 191 184 169 188 163 141 277 308 248 203 213 236 234 211 252 24 30 333 313 55 21 298 303 286 261 276 321 298 259 226 250 246 213 207 201 201 204 188
322 318 315 309 305 322 333 346 353 338 323 285 344 354 352 348 348 349 86 47 324 283 285 272 221 203 196 185 188 125 66 291 254 193 171 173 159 130 206 269 320 249 244 227 184 207 260 255 159 173 191 165 145 189 205 149 119 297 251 204 201 216 237 234 157 109 116 251 281 60 144 259 305 296 258 271 305 291 278 235 247 249 208 197 203 205 204 186
325 325 322 305 303 332 342 318 334 343 1 340 338 334 320 320 331 346 64 38 330 264 221 275 319 188 208 193 148 90 84 274 286 108 169 179 161 113 218 256 326 278 246 57 18 265 281 346 112 136 136 129 122 188 221 135 114 241 244 194 206 235 249 245 140 139 196 234 320 13 122 231 289 267 258 278 298 287 285 263 251 245 211 204 208 206 203 186
328 333 322 309 316 337 346 331 329 341 2 337 330 328 323 314 315 39 83 63 296 241 221 255 228 196 246 183 104 106 207 222 111 239 241 186 163 76 243 243 223 249 246 97 300 273 268 251 200 146 119 143 173 213 208 137 129 245 232 191 223 198 172 156 103 113 173 69 326 316 55 183 277 273 278 289 279 283 284 271 256 242 216 208 212 207 205 194
328 334 318 318 322 330 345 338 330 339 341 339 335 328 326 327 354 64 85 103 283 272 245 308 335 260 274 58 48 156 212 181 157 231 236 163 165 115 180 225 188 226 252 138 193 261 246 225 211 146 135 190 214 222 178 141 198 242 190 166 24 68 113 101 98 99 47 49 291 276 294 65 275 278 293 309 257 265 267 267 258 238 218 212 215 211 206 199
317 319 305 312 312 320 334 325 326 344 338 340 338 325 319 355 54 63 47 238 247 273 231 34 315 218 116 76 309 247 215 231 214 247 30 115 355 72 160 237 115 124 323 52 195 246 268 250 205 148 172 190 198 213 170 168 207 211 139 148 30 22 21 37 70 84 57 351 278 256 164 116 302 280 257 230 240 251 258 277 273 236 216 219 219 214 211 206
305 301 292 307 304 304 320 310 327 342 334 335 336 329 347 25 62 92 223 242 230 287 307 292 284 264 131 167 252 256 232 242 170 138 203 223 356 6 16 6 28 45 7 348 300 290 322 319 223 219 198 163 161 227 220 170 171 91 82 104 58 345 360 19 358 42 72 261 270 255 132 124 248 268 258 250 270 275 257 266 269 222 209 223 223 212 214 215
301 287 285 304 291 272 273 290 331 343 327 328 335 351 82 40 33 135 250 288 299 285 334 360 301 305 208 205 220 229 224 237 194 179 192 192 193 218 181 180 166 53 338 282 285 327 325 260 266 295 238 157 139 237 312 5 53 84 78 77 90 332 7 14 317 351 177 247 260 215 148 147 236 254 264 271 278 281 253 238 240 216 206 211 210 207 211 213
302 292 300 306 291 276 274 298 335 341 321 325 339 45 78 68 257 234 261 327 330 287 350 356 316 326 302 231 253 238 223 230 210 190 187 168 184 239 267 211 170 131 223 239 247 330 322 301 312 348 296 211 134 162 261 320 52 125 137 112 121 120 57 307 278 283 246 264 273 232 175 229 278 264 244 240 257 274 275 258 233 223 227 216 208 200 196 201
321 317 313 305 291 280 277 316 336 325 318 330 16 65 56 68 248 274 306 318 308 324 357 336 323 347 9 357 291 294 294 262 219 176 175 152 167 240 267 239 190 147 143 228 238 187 204 300 290 177 254 245 164 179 182 165 145 174 164 129 135 145 149 207 225 213 237 265 293 314 206 196 236 267 249 244 266 282 300 308 301 241 295 265 226 139 161 185
324 316 309 308 300 275 260 328 341 327 325 0 60 67 72 210 256 275 285 280 303 334 335 346 13 12 352 329 319 343 349 295 290 137 167 170 179 210 214 219 206 168 133 153 241 193 172 241 252 235 220 107 25 292 162 126 75 257 139 101 142 173 157 185 195 181 181 233 297 310 259 213 209 270 293 326 351 5 358 358 17 29 23 30 35 45 69 221
327 323 316 319 323 281 226 16 339 330 350 60 68 63 171 211 241 197 255 298 342 337 343 1 26 30 340 325 336 354 359 330 346 19 244 214 214 220 211 221 212 185 167 173 223 188 161 236 269 292 66 80 38 329 18 139 185 248 145 153 223 161 133 175 264 213 109 148 263 261 259 293 325 304 317 11 27 27 28 21 23 37 52 50 39 41 33 10
353 342 322 324 344 8 140 130 290 323 17 80 87 224 212 224 298 36 323 332 349 13 47 26 335 360 347 327 323 347 351 341 355 357 321 301 293 286 298 305 305 196 185 173 214 190 142 244 288 350 54 25 257 23 14 25 123 85 278 226 234 62 91 111 306 339 44 228 271 281 233 279 338 288 323 20 39 31 22 26 29 35 53 53 36 44 44 32
359 353 317 306 344 316 320 319 294 3 60 75 63 256 214 203 353 76 279 320 5 58 74 116 271 321 9 316 294 326 347 340 351 346 318 315 299 321 9 337 341 338 274 152 142 209 123 217 290 321 54 287 340 53 10 341 62 92 263 250 188 82 287 352 58 283 274 246 281 306 269 250 213 227 335 25 39 42 26 30 38 31 35 40 29 32 36 34
4 14 319 268 223 292 316 329 22 64 65 56 292 261 240 212 236 189 248 339 61 88 73 195 225 349 330 264 262 296 351 326 336 333 306 320 302 325 23 357 321 339 342 71 109 256 93 121 276 298 271 295 8 47 28 326 6 79 12 353 53 158 187 199 188 173 179 207 243 299 310 287 234 218 154 91 38 60 55 47 51 38 31 32 23 23 28 31
17 33 278 267 276 291 304 28 61 62 76 197 208 232 289 262 267 306 25 53 82 127 150 212 199 281 282 275 283 294 336 196 317 309 257 310 326 323 358 359 327 345 6 43 60 13 53 98 229 291 320 346 338 121 143 130 31 23 356 344 341 339 212 227 261 139 139 167 185 206 273 270 253 219 156 149 82 68 73 67 65 56 46 37 25 23 19 18
13 45 264 310 331 287 317 51 41 81 128 251 258 277 328 328 331 340 360 34 39 222 202 196 140 224 242 304 332 295 326 322 300 334 257 321 6 316 317 350 353 349 23 39 30 21 50 115 180 284 325 300 266 251 160 140 150 147 194 274 296 303 334 356 291 288 110 149 168 170 221 257 255 215 157 137 101 77 80 77 64 47 44 37 28 28 22 18
58 28 276 339 345 298 29 54 319 62 110 4 337 332 330 328 338 347 348 0 8 359 51 62 42 345 248 273 326 309 358 323 285 326 266 282 304 236 285 341 359 16 84 70 314 220 138 107 112 217 241 245 271 277 312 78 137 141 153 186 57 21 63 89 257 273 312 244 180 138 213 256 255 209 143 105 85 82 89 88 73 38 22 25 21 19 19 15
83 287 287 6 357 324 63 43 325 3 41 316 323 335 328 324 331 347 355 353 345 6 39 34 27 351 315 354 356 352 15 321 271 277 255 290 307 249 320 347 342 351 68 67 293 271 85 68 62 309 286 310 315 314 352 28 59 74 10 44 85 81 103 161 211 212 227 253 191 118 250 266 273 243 129 99 87 74 43 37 54 33 3 9 14 10 14 10
311 269 271 7 4 16 85 55 328 1 332 319 348 340 325 331 339 344 350 335 309 229 105 308 332 348 320 27 40 337 4 13 297 307 306 303 290 297 19 10 351 336 271 196 191 242 296 27 78 16 329 334 344 345 348 356 22 44 295 298 83 77 89 164 276 63 10 245 164 144 239 256 270 301 14 60 84 103 100 325 47 43 14 5 4 4 11 16
335 294 268 339 6 38 96 141 101 47 329 346 359 334 330 337 325 326 322 303 293 153 155 251 352 107 317 33 31 295 196 149 256 303 329 315 288 329 20 7 0 349 275 219 147 130 210 194 128 132 253 260 280 286 265 289 318 303 265 265 60 62 54 51 53 67 275 265 173 150 238 270 288 315 359 13 6 18 22 251 85 72 38 12 8 11 13 19
15 12 309 325 6 40 79 100 80 69 346 356 344 321 329 324 304 318 334 316 347 21 351 251 334 53 22 27 17 324 338 355 309 325 351 333 316 339 344 337 356 27 351 351 32 76 98 88 149 157 182 200 196 215 222 214 286 286 285 292 302 96 94 75 72 159 202 242 293 232 226 273 295 309 356 2 342 336 333 348 30 54 46 28 25 29 26 25
52 68 8 332 333 10 18 13 44 35 323 304 291 282 292 309 309 323 332 325 29 33 10 324 20 16 352 10 24 334 340 350 356 8 5 341 321 319 319 319 357 20 6 355 1 52 85 327 248 166 188 203 188 207 228 220 251 259 271 285 287 120 117 177 242 225 173 124 286 252 202 238 282 296 339 340 320 321 337 353 13 27 29 29 30 32 30 26
44 123 36 51 294 337 4 332 350 357 326 296 236 255 280 297 290 293 317 325 30 37 30 10 14 9 358 27 101 34 352 358 3 355 353 349 336 337 333 322 355 16 10 347 351 71 113 258 248 193 216 214 190 205 216 212 240 250 247 264 275 259 225 233 231 212 153 154 249 250 208 219 266 301 333 328 321 339 357 1 12 16 14 17 19 21 22 19
36 9 337 13 29 223 237 289 326 353 339 328 324 293 286 299 290 298 349 359 10 28 61 57 357 354 6 26 88 81 27 21 348 326 344 354 338 348 348 314 330 21 20 352 339 44 121 267 256 222 247 240 211 219 220 214 235 252 249 243 231 237 240 233 235 216 181 201 238 250 256 248 253 291 322 337 6 43 34 16 15 14 10 9 13 17 19 15
30 353 322 357 356 292 258 313 351 4 348 350 351 323 330 352 342 322 342 64 63 13 57 78 1 352 20 35 69 95 150 157 171 246 292 357 340 337 330 301 314 349 360 352 333 355 2 280 260 267 320 292 262 244 235 229 235 249 256 222 159 257 265 246 239 217 200 241 247 246 283 274 260 273 287 16 52 57 45 23 10 1 351 359 14 19 15 8
354 300 314 20 333 326 335 336 354 17 4 4 359 335 343 356 348 323 301 84 108 105 98 109 93 22 30 46 79 139 205 175 175 216 224 223 266 259 251 275 317 323 330 344 319 345 353 298 315 21 335 285 268 253 253 270 289 275 268 172 233 272 273 243 239 226 220 255 262 282 273 258 264 289 290 58 58 56 42 12 350 328 329 4 28 20 2 350
1 332 359 53 277 336 9 352 359 37 34 357 344 340 349 343 345 355 339 342 74 109 128 128 115 78 19 5 106 190 208 200 203 225 223 219 240 247 252 268 275 273 278 284 264 222 173 257 318 2 279 276 262 250 268 27 335 282 253 192 209 243 249 267 310 301 189 185 169 203 236 236 251 316 350 5 23 40 23 339 314 304 331 27 30 359 339 325